{"data":{"norad_id":53259,"epoch":"2026-05-25T05:12:17.446176Z","epoch_age_seconds":55994,"freshness":"FRESH","line1":"1 53259U 22086T   26145.21686859 -.00000010  00000+0  17480-4 0  9990","line2":"2 53259  53.2147 210.2180 0001528  90.2170 269.8998 15.08835178212627","mean_motion":15.08835178,"eccentricity":0.0001528,"inclination_deg":53.2147,"raan_deg":210.218,"arg_perigee_deg":90.217,"mean_anomaly_deg":269.8998,"bstar":1.748e-5,"rev_number":21262,"period_min":95.437859681185,"perigee_km":538.70107355274,"apogee_km":540.81518230383,"semimajor_km":6917.8951279283,"source":"CELESTRAK","updated_at":"2026-05-25T13:38:17.363675Z"}}